User: anonymous   Login
Location: Unspecified
(0.0000°N, 0.0000°E)
Time: 22:23:51
(UTC+00:00)
Language:

STARLINK-33999 - Orbit

View from above orbital plane
View from above orbital plane
View from above satellite
View from above satellite

Ground track
Ground track

The orbit is defined by the following mean orbital elements,

1 63857U          26145.32248179 +.00000000 +00000-0 +58689-3 0 00005
2 63857  43.0008   4.9564 0001297 274.0032  86.0671 15.27590856    07
Epoch (UTC): 25 May 2026 07:44:22
Eccentricity: 0.0001297
inclination: 43.0008°
perigee height: 482 km
apogee height: 484 km
right ascension of ascending node: 4.9564°
argument of perigee: 274.0032°
revolutions per day: 15.27590856
mean anomaly at epoch: 86.0671°

The dashed part of the orbit path shows where the satellite is in the earth's shadow,  

DLR